Location: Tamazert
(32.6352°N, 5.2072°W)
Time: 19:47:32
(UTC+00:00)

Vanguard 1 - Pass Details

Date: 09 October 2022
Orbit: 650 x 3831 km, 34.2° (Epoch: 30 November)

Event Time Altitude Azimuth Distance (km) Brightness Sun altitude
Rises 18:06:51 0° 287° (WNW) 6,022 15.6 -3.2°
Reaches altitude 10° 18:11:42 10° 283° (WNW) 4,472 14.9 -4.2°
Maximum altitude 18:21:54 46° 215° (SW) 1,649 11.6 -6.4°
Drops below altitude 10° 18:27:46 10° 142° (SE) 2,604 11.9 -7.6°
Sets 18:29:54 0° 136° (SE) 3,341 12.4 -8.1°
